Location: Unspecified
(41.1637°N, 24.2901°E)
Time: 11:46:23
(UTC+02:00)

ISS - Pass Details

Date: 13 May 2026
Orbit: 414 x 424 km, 51.6° (Epoch: 12 May)

Event Time Altitude Azimuth Distance (km) Brightness Sun altitude
Rises 20:07:37 0° 259° (W) 2,343 0.8 -6.7°
Reaches altitude 10° 20:09:52 10° 270° (W) 1,483 0.0 -7.0°
Maximum altitude 20:12:51 30° 334° (NNW) 765 -1.7 -7.5°
Drops below altitude 10° 20:15:52 10° 39° (NE) 1,490 -1.0 -8.0°
Sets 20:18:08 0° 50° (NE) 2,355 -0.1 -8.3°
